Lid_Strength_Index
-0 0 -0 2 8 7 8 8 5 6 6 4 4 5 6 5 7 11 1 -0 -0 -0 -1 -1 -1 -1 -1 -1 -2 -1 -1 -1 -1 -1 -1 -1 -1 -1 -1 -1 -1 -1 -1 -1 -1 -1 -1 -1 -1
1 1 1 4 9 11 9 6 7 6 5 4 4 4 5 7 3 3 2 -0 -1 -1 -1 -1 -1 -1 -1 -1 -1 -1 -1 -1 -1 -1 -1 -1 -1 -1 -1 -1 -1 -1 -1 -1 -1 -1 -1 -1 -1
0 1 4 6 7 9 9 6 6 5 4 4 5 3 4 6 3 2 0 -0 -1 -1 -1 -1 -2 -1 -1 -1 -1 -1 -1 -1 -1 -1 -1 -1 -1 -1 -1 -1 -1 -1 -1 -1 -1 -1 -1 -1 -1
2 2 3 7 8 7 7 6 5 5 4 4 4 5 4 2 2 1 -0 -1 -0 -1 -1 -1 -2 -1 -2 -1 -1 -1 -1 -1 -1 -1 -1 -1 -1 -1 -1 -1 -1 -1 -1 -1 -1 -1 -1 -1 -1
3 4 7 8 7 6 5 5 4 6 5 4 4 6 5 2 0 0 -0 -0 -0 -0 -1 -1 -1 -1 -1 -1 -1 -1 -1 -1 -1 -1 -1 -1 -1 -1 -1 -1 -1 -1 -1 -1 -1 -1 -1 -1 -1
5 3 9 10 8 6 5 4 5 5 5 5 5 5 5 1 1 0 -0 -0 -0 -0 -1 -1 -1 -2 -2 -1 -1 -1 -1 -1 -1 -1 -1 -1 -1 -1 -1 -1 -1 -1 -1 -1 -1 -1 -1 -1 -1
5 5 8 7 8 7 5 4 5 5 5 5 3 6 4 2 1 0 -0 -0 -0 -1 -1 -1 -1 -1 -1 -2 -1 -1 -1 -1 -1 -1 -1 -1 -1 -1 -1 -1 -1 -1 -1 -1 -1 -1 -1 -1 -1
3 4 7 6 8 8 5 4 4 4 5 3 3 5 6 2 1 0 -0 -0 -0 -0 -1 -1 -1 -1 -1 -1 -1 -1 -1 -1 -1 -1 -1 -1 -1 -1 -1 -2 -1 -1 -1 -1 -1 -1 -1 -1 -1
2 6 8 8 8 6 4 5 3 3 4 4 3 3 2 1 1 1 1 1 0 0 -0 -1 -1 -1 -1 -1 -1 -1 -1 -1 -1 -1 -1 -2 -2 -2 -2 -2 -1 -1 -1 -1 -1 -1 -1 -1 -2
4 6 7 5 5 5 4 4 4 4 4 5 4 3 2 1 2 2 2 2 1 1 0 -0 -1 -1 -1 -1 -1 -2 -2 -2 -2 -2 -2 -1 -2 -2 -2 -2 -2 -1 -1 -1 -1 -2 -2 -2 -1
4 6 5 5 5 4 4 4 3 4 5 4 5 4 3 2 2 2 2 1 1 0 -0 -0 -1 -1 -1 -1 -1 -1 -1 -1 -1 -2 -2 -2 -2 -2 -1 -1 -1 -2 -2 -1 -2 -2 -1 -1 -1
5 4 4 5 5 5 4 3 4 4 4 3 3 3 3 3 2 2 2 1 1 1 0 -0 -1 -1 -1 -1 -1 -1 -1 -1 -1 -1 -2 -2 -1 -1 -1 -1 -1 -1 -1 -1 -1 -1 -1 -1 -1
5 4 4 4 5 5 4 4 4 4 3 2 2 3 3 3 2 2 1 1 1 1 0 -0 -1 -1 -1 -1 -1 -1 -1 -1 -1 -1 -2 -1 -1 -1 -1 -1 -1 -1 -1 -1 -1 -1 -1 -1 -1
4 4 4 4 5 4 5 4 4 4 3 3 3 3 3 2 2 2 1 1 1 0 0 -0 -0 -1 -1 -1 -1 -1 -1 -1 -1 -1 -1 -2 -1 -1 -1 -1 -1 -1 -1 -1 -1 -1 -1 -0 -1
4 6 5 5 5 4 4 5 5 3 3 4 4 3 3 2 2 2 1 1 1 0 -0 -0 -1 -1 -1 -1 -1 -1 -1 -1 -1 -1 -3 -2 -2 -2 -2 -1 -1 -1 -1 -2 -2 -1 -1 -1 -1
7 6 7 5 4 4 4 7 5 3 3 4 4 3 3 2 2 1 1 1 0 0 -0 -0 -0 -1 -1 -1 -1 -1 -1 -1 -1 -1 -1 -2 -2 -2 -1 -1 -1 -1 -1 -1 -1 -0 -0 -0 -0
8 9 7 6 4 5 5 7 4 3 3 4 4 4 3 3 2 1 1 1 0 -0 -0 -0 -1 -0 -1 -1 -1 -1 -2 -1 -1 -1 -1 -2 -2 -1 -1 -1 -1 -2 -1 -0 -0 0 -0 0 0
10 9 7 7 5 5 6 6 5 4 4 4 4 4 3 3 3 2 1 1 0 0 -0 -0 -0 -1 -1 -1 -1 -1 -1 -1 -1 -1 -1 -2 -1 -2 -1 -1 -1 -1 -0 -0 -0 1 0 0 1
7 7 7 6 5 6 6 6 5 4 4 4 4 4 4 3 2 1 1 1 1 0 0 0 0 -0 -0 0 1 1 1 0 -0 -1 -2 -2 -2 -1 -1 -1 -1 -1 -0 -0 -0 0 1 1 0
8 8 8 6 5 6 6 6 5 4 5 5 5 4 4 3 3 2 2 1 1 1 0 0 0 0 0 0 0 0 0 -0 -0 -1 -1 -2 -2 -1 -1 -1 -0 -1 -0 -0 -0 0 1 1 0
8 8 8 7 6 6 6 7 6 5 5 5 4 4 4 4 3 3 2 1 1 1 1 0 0 0 0 -0 -0 0 -0 0 0 0 -0 -1 -1 -1 -1 -1 -1 -1 -0 0 -0 0 1 3 1
9 7 8 8 7 10 6 10 7 6 7 6 5 5 4 4 3 3 2 2 1 1 0 -0 -0 0 -0 -0 0 1 1 2 1 0 -0 -1 -1 -1 -1 -1 -1 -1 -0 0 -0 -1 0 1 3
8 6 7 8 9 9 7 9 7 7 8 7 6 5 4 4 3 3 3 2 1 1 1 0 -0 0 -0 -0 0 1 1 1 0 0 -0 -1 -1 -1 -1 -1 -1 -0 -0 -1 -0 -0 0 0 2
5 7 8 7 8 11 9 8 8 8 8 7 5 5 5 4 3 3 2 2 2 1 1 1 0 -0 -0 -0 -0 0 1 1 1 1 1 0 0 -0 -1 -1 -1 -1 -1 -0 -0 -0 -0 0 1
6 7 10 11 11 11 7 9 11 8 6 6 6 6 5 4 4 3 3 3 2 2 1 1 1 1 0 1 0 0 0 0 0 1 1 0 1 1 0 -1 -1 -1 -1 -1 -1 -0 -0 0 1
7 7 10 13 12 11 8 10 10 7 5 5 5 5 4 4 3 3 3 3 3 2 2 1 1 1 1 0 0 -0 -0 0 0 1 1 1 1 0 -1 -1 -1 -1 -1 -1 -1 -0 0 1 2
7 8 6 9 8 10 9 10 8 7 6 6 6 5 5 4 4 3 3 3 3 2 2 2 2 1 1 1 1 1 1 0 1 0 -0 0 -0 0 -0 -0 -0 -0 -0 0 1 2 3 2 3
6 5 9 8 12 12 10 12 11 9 8 7 7 6 5 4 4 3 3 2 2 2 2 1 1 1 1 1 1 1 1 0 0 0 0 0 -0 -0 -0 -0 0 1 1 1 1 2 2 3 3
7 8 7 7 8 11 12 11 7 8 7 7 7 6 5 5 4 3 3 2 2 1 1 1 1 1 1 1 1 1 1 0 0 0 0 0 0 0 0 0 0 1 1 2 3 3 3 4 4
6 7 7 10 10 9 10 13 6 6 6 6 7 6 5 4 4 3 3 2 2 2 1 2 1 1 1 1 1 1 1 1 2 2 1 1 0 -0 -0 -1 -0 0 0 0 1 1 2 2 2